This demonstration page uses our WeatherBlox Daily Observations layout. Learn more.

Left ArrowRight Arrow

Hourly Observations for January 10, 2015

Temp ( °F °C ) Dew Point ( °F °C ) Humidity (%) Winds ( mph kmh ) Pressure ( in mb ) Visibility ( mi km ) Precip ( " mm )
12:51 am 00:51 Cloudy 45 7.2 30 -1.1 56 56 SE 10 17 30.18 1022 10 16 0.00 0.00
1:51 am 01:51 Cloudy 45 7.2 30 -1.1 56 56 SE 10 17 30.17 1022 10 16 0.00 0.00
2:51 am 02:51 Cloudy 44 6.7 30 -1.1 58 58 SSE 8 13 30.16 1021 10 16 0.00 0.00
3:51 am 03:51 Cloudy 44 6.7 30 -1.1 58 58 SSE 9 15 30.14 1021 10 16 0.00 0.00
4:51 am 04:51 Cloudy 44 6.7 30 -1.1 58 58 SE 7 11 30.14 1021 10 16 0.00 0.00
5:51 am 05:51 Cloudy 44 6.7 30 -1.1 58 58 SE 7 11 30.14 1021 10 16 0.00 0.00
6:51 am 06:51 Cloudy 44 6.7 30 -1.1 58 58 SE 7 11 30.15 1021 10 16 0.00 0.00
7:51 am 07:51 Cloudy 44 6.7 31 -0.6 60 60 SE 7 11 30.16 1021 10 16 0.00 0.00
8:51 am 08:51 Cloudy 45 7.2 31 -0.6 58 58 SE 7 11 30.18 1022 10 16 0.00 0.00
9:51 am 09:51 Cloudy 46 7.8 30 -1.1 54 54 SSE 10 17 30.19 1023 10 16 0.00 0.00
10:51 am 10:51 Cloudy 48 8.9 31 -0.6 52 52 SE 10 17 30.17 1022 10 16 0.00 0.00
11:51 am 11:51 Cloudy 51 10.6 32 0 48 48 ESE 8 13 30.14 1021 10 16 0.00 0.00
12:51 pm 12:51 Mostly Cloudy 52 11.1 32 0 47 47 ESE 9 15 30.09 1019 10 16 0.00 0.00
1:51 pm 13:51 Mostly Sunny 53 11.7 34 1.1 48 48 ESE 13 20 30.06 1018 10 16 0.00 0.00
2:51 pm 14:51 Sunny 54 12.2 34 1.1 47 47 SE 10 17 30.04 1017 10 16 0.00 0.00
3:51 pm 15:51 Sunny 54 12.2 34 1.1 47 47 SE 6 9 30.04 1017 10 16 0.00 0.00
4:51 pm 16:51 Sunny 53 11.7 34 1.1 48 48 E 7 11 30.04 1017 10 16 0.00 0.00
5:51 pm 17:51 Mostly Clear 49 9.4 34 1.1 56 56 ENE 3 6 30.06 1018 10 16 0.00 0.00
6:51 pm 18:51 Mostly Cloudy 47 8.3 34 1.1 61 61 NE 5 7 30.07 1018 10 16 0.00 0.00
7:51 pm 19:51 Mostly Clear 44 6.7 34 1.1 68 68 E 6 9 30.08 1019 10 16 0.00 0.00
8:51 pm 20:51 Mostly Cloudy 46 7.8 35 1.7 66 66 E 7 11 30.08 1019 10 16 0.00 0.00
9:51 pm 21:51 Mostly Cloudy 44 6.7 35 1.7 71 71 E 6 9 30.09 1019 10 16 0.00 0.00
10:51 pm 22:51 Cloudy 46 7.8 36 2.2 68 68 ESE 7 11 30.08 1019 10 16 0.00 0.00
11:51 pm 23:51 Mostly Cloudy 43 6.1 35 1.7 74 74 Calm 30.08 1019 10 16 0.00 0.00

Powered by AerisWeather